EJU3RU EHAM-LFPG

Flight info

Callsign EJU3RU
Flight time 0h 49m
Altitude 29000
Route WOODY N872 DENOX DCT SISGA DCT DELOM DCT MOPIL
Aircraft A320/M-SDE3FGHIRWY/LB1

Departure

Time 2026-05-05 14:08
Airport Amsterdam Airport Schiphol (EHAM)

Arrival

Time 2026-05-05 14:58
Airport Charles de Gaulle International Airport (LFPG)
Time Latitude Longitude Altitude Speed Heading
2026-05-05 13:27 52.31050 4.75514 -1 ft 0 kts 148°
2026-05-05 13:55 52.31051 4.75513 -1 ft 1 kts 148°
2026-05-05 13:55 52.31065 4.75498 -1 ft 3 kts 139°
2026-05-05 13:56 52.31078 4.75475 -1 ft 3 kts 114°
2026-05-05 13:56 52.31082 4.75447 -1 ft 2 kts 68°
2026-05-05 13:56 52.31080 4.75438 -1 ft 0 kts 58°
2026-05-05 14:00 52.31085 4.75451 -1 ft 2 kts 58°
2026-05-05 14:00 52.31096 4.75474 -1 ft 7 kts 45°
2026-05-05 14:00 52.31185 4.75491 -1 ft 11 kts 352°
2026-05-05 14:00 52.31268 4.75456 -1 ft 13 kts 347°
2026-05-05 14:01 52.31366 4.75447 -1 ft 15 kts 357°
2026-05-05 14:01 52.31467 4.75438 -1 ft 7 kts 356°
2026-05-05 14:01 52.31504 4.75395 -1 ft 7 kts 294°
2026-05-05 14:01 52.31507 4.75326 -1 ft 6 kts 268°
2026-05-05 14:02 52.31505 4.75246 -1 ft 7 kts 266°
2026-05-05 14:02 52.31502 4.75154 -1 ft 11 kts 266°
2026-05-05 14:02 52.31497 4.75009 -1 ft 15 kts 266°
2026-05-05 14:02 52.31491 4.74841 -1 ft 14 kts 266°
2026-05-05 14:03 52.31486 4.74689 -1 ft 13 kts 266°
2026-05-05 14:03 52.31481 4.74554 -1 ft 11 kts 267°
2026-05-05 14:03 52.31477 4.74432 -1 ft 10 kts 267°
2026-05-05 14:03 52.31473 4.74323 -1 ft 9 kts 266°
2026-05-05 14:04 52.31450 4.74193 -1 ft 17 kts 235°
2026-05-05 14:04 52.31349 4.74136 -1 ft 15 kts 186°
2026-05-05 14:04 52.31249 4.74126 -1 ft 14 kts 183°
2026-05-05 14:04 52.31158 4.74118 -1 ft 12 kts 183°
2026-05-05 14:05 52.31061 4.74109 -1 ft 20 kts 183°
2026-05-05 14:05 52.30877 4.74091 -1 ft 29 kts 183°
2026-05-05 14:05 52.30772 4.74082 -1 ft 18 kts 183°
2026-05-05 14:05 52.30654 4.74072 -1 ft 16 kts 183°
2026-05-05 14:06 52.30599 4.74021 -1 ft 8 kts 250°
2026-05-05 14:06 52.30608 4.73941 -1 ft 7 kts 303°
2026-05-05 14:06 52.30643 4.73901 -1 ft 6 kts 331°
2026-05-05 14:06 52.30676 4.73872 -2 ft 5 kts 333°
2026-05-05 14:07 52.30723 4.73836 -1 ft 15 kts 336°
2026-05-05 14:07 52.30866 4.73797 -1 ft 24 kts
2026-05-05 14:07 52.31180 4.73828 -2 ft 78 kts
2026-05-05 14:07 52.31928 4.73898 -1 ft 135 kts
2026-05-05 14:08 52.32966 4.73975 353 ft 151 kts
2026-05-05 14:08 52.33978 4.74312 1084 ft 149 kts 24°
2026-05-05 14:08 52.34972 4.74993 1586 ft 165 kts 24°
2026-05-05 14:08 52.36102 4.75754 1953 ft 187 kts 24°
2026-05-05 14:09 52.37187 4.77093 2325 ft 208 kts 59°
2026-05-05 14:09 52.37462 4.79435 3032 ft 219 kts 96°
2026-05-05 14:09 52.37130 4.81898 3848 ft 225 kts 106°
2026-05-05 14:09 52.36250 4.84029 4589 ft 234 kts 142°
2026-05-05 14:10 52.34696 4.85055 5069 ft 256 kts 175°
2026-05-05 14:10 52.32854 4.85096 5680 ft 270 kts 181°
2026-05-05 14:10 52.30968 4.85025 6569 ft 272 kts 182°
2026-05-05 14:10 52.29067 4.84940 7421 ft 275 kts 182°
2026-05-05 14:11 52.27155 4.84578 8228 ft 279 kts 197°
2026-05-05 14:11 52.25299 4.83567 9046 ft 283 kts 199°
2026-05-05 14:11 52.23422 4.82507 9861 ft 288 kts 199°
2026-05-05 14:11 52.21492 4.81410 10325 ft 304 kts 199°
2026-05-05 14:12 52.19417 4.80229 10585 ft 326 kts 199°
2026-05-05 14:12 52.17257 4.79003 11144 ft 335 kts 199°
2026-05-05 14:12 52.15034 4.77747 11836 ft 341 kts 199°
2026-05-05 14:12 52.12719 4.76444 12048 ft 362 kts 199°
2026-05-05 14:13 52.10328 4.75105 12515 ft 372 kts 199°
2026-05-05 14:13 52.07865 4.73729 13150 ft 377 kts 199°
2026-05-05 14:13 52.05366 4.72332 13805 ft 381 kts 199°
2026-05-05 14:13 52.02843 4.70923 14410 ft 385 kts 199°
2026-05-05 14:14 52.00300 4.69505 15050 ft 387 kts 199°
2026-05-05 14:14 51.97750 4.68083 15697 ft 389 kts 199°
2026-05-05 14:14 51.95182 4.66652 16336 ft 391 kts 199°
2026-05-05 14:14 51.92600 4.65217 16979 ft 393 kts 198°
2026-05-05 14:15 51.90007 4.63777 17613 ft 395 kts 198°
2026-05-05 14:15 51.87397 4.62330 18250 ft 398 kts 198°
2026-05-05 14:15 51.84772 4.60878 18788 ft 400 kts 198°
2026-05-05 14:15 51.82128 4.59419 19296 ft 402 kts 198°
2026-05-05 14:16 51.79469 4.57952 19808 ft 405 kts 198°
2026-05-05 14:16 51.76795 4.56477 20297 ft 408 kts 198°
2026-05-05 14:16 51.74102 4.54989 20787 ft 410 kts 198°
2026-05-05 14:16 51.71396 4.53492 21242 ft 413 kts 198°
2026-05-05 14:17 51.68666 4.51986 21698 ft 415 kts 198°
2026-05-05 14:17 51.65927 4.50478 22142 ft 418 kts 198°
2026-05-05 14:17 51.63166 4.48963 22564 ft 421 kts 198°
2026-05-05 14:17 51.60387 4.47443 22986 ft 423 kts 198°
2026-05-05 14:18 51.57592 4.45917 23385 ft 426 kts 198°
2026-05-05 14:18 51.54777 4.44381 23737 ft 428 kts 198°
2026-05-05 14:18 51.51950 4.42840 24100 ft 429 kts 198°
2026-05-05 14:18 51.49121 4.41298 24459 ft 431 kts 198°
2026-05-05 14:19 51.46277 4.39752 24815 ft 432 kts 198°
2026-05-05 14:19 51.43425 4.38208 25180 ft 433 kts 198°
2026-05-05 14:19 51.40583 4.36626 25536 ft 434 kts 201°
2026-05-05 14:19 51.37836 4.34596 25881 ft 435 kts 205°
2026-05-05 14:20 51.35103 4.32515 26209 ft 435 kts 203°
2026-05-05 14:20 51.32238 4.31033 26506 ft 435 kts 189°
2026-05-05 14:20 51.29269 4.30411 26796 ft 436 kts 186°
2026-05-05 14:20 51.26251 4.29859 27085 ft 437 kts 186°
2026-05-05 14:21 51.23230 4.29333 27357 ft 438 kts 186°
2026-05-05 14:21 51.22479 4.29205 27414 ft 438 kts 186°
2026-05-05 14:21 51.20354 4.28846 27607 ft 439 kts 186°
2026-05-05 14:21 51.17313 4.28336 27856 ft 440 kts 186°
2026-05-05 14:22 51.14264 4.27822 28077 ft 441 kts 186°
2026-05-05 14:22 51.11206 4.27295 28281 ft 442 kts 186°
2026-05-05 14:22 51.08166 4.26764 28462 ft 443 kts 186°
2026-05-05 14:22 51.05073 4.26223 28636 ft 444 kts 186°
2026-05-05 14:23 51.01998 4.25688 28795 ft 445 kts 186°
2026-05-05 14:23 50.98918 4.25150 28887 ft 445 kts 186°
2026-05-05 14:23 50.92757 4.24082 28891 ft 446 kts 186°
2026-05-05 14:24 50.86589 4.23006 28893 ft 446 kts 186°
2026-05-05 14:24 50.80409 4.21933 28890 ft 447 kts 186°
2026-05-05 14:25 50.74226 4.20864 28890 ft 447 kts 186°
2026-05-05 14:25 50.68041 4.19804 28887 ft 447 kts 185°
2026-05-05 14:26 50.61844 4.18746 28881 ft 447 kts 185°
2026-05-05 14:26 50.55655 4.17689 28878 ft 448 kts 185°
2026-05-05 14:27 50.49502 4.16638 28875 ft 448 kts 185°
2026-05-05 14:27 50.43299 4.15588 28871 ft 448 kts 185°
2026-05-05 14:28 50.37095 4.14541 28782 ft 449 kts 185°
2026-05-05 14:28 50.34018 4.14019 28395 ft 438 kts 185°
2026-05-05 14:28 50.31046 4.13517 28249 ft 420 kts 185°
2026-05-05 14:29 50.28187 4.13038 28039 ft 407 kts 185°
2026-05-05 14:29 50.25409 4.12575 27625 ft 399 kts 185°
2026-05-05 14:29 50.22655 4.12112 27130 ft 395 kts 185°
2026-05-05 14:29 50.20149 4.11688 26717 ft 390 kts 185°
2026-05-05 14:30 50.17502 4.11237 26291 ft 387 kts 185°
2026-05-05 14:30 50.14837 4.10784 25854 ft 383 kts 185°
2026-05-05 14:30 50.12209 4.10440 25605 ft 374 kts 183°
2026-05-05 14:30 50.09627 4.10222 25273 ft 368 kts 182°
2026-05-05 14:31 50.07084 4.10074 24967 ft 364 kts 181°
2026-05-05 14:31 50.04553 4.09948 24674 ft 362 kts 181°
2026-05-05 14:31 50.02044 4.09815 24383 ft 361 kts 181°
2026-05-05 14:31 49.99534 4.09660 24099 ft 359 kts 181°
2026-05-05 14:32 49.97042 4.09486 23808 ft 358 kts 182°
2026-05-05 14:32 49.94557 4.09296 23526 ft 357 kts 182°
2026-05-05 14:32 49.92076 4.09105 23209 ft 356 kts 182°
2026-05-05 14:32 49.89610 4.08921 22906 ft 354 kts 182°
2026-05-05 14:33 49.87154 4.08739 22551 ft 352 kts 182°
2026-05-05 14:33 49.84719 4.08562 22160 ft 349 kts 182°
2026-05-05 14:33 49.82303 4.08378 21772 ft 346 kts 182°
2026-05-05 14:33 49.79905 4.08198 21337 ft 344 kts 181°
2026-05-05 14:34 49.77525 4.08023 20922 ft 341 kts 181°
2026-05-05 14:34 49.75162 4.07853 20494 ft 339 kts 181°
2026-05-05 14:34 49.72815 4.07679 20084 ft 336 kts 181°
2026-05-05 14:34 49.70515 4.07510 19680 ft 334 kts 181°
2026-05-05 14:35 49.68202 4.07340 19281 ft 332 kts 181°
2026-05-05 14:35 49.65897 4.07173 18879 ft 330 kts 181°
2026-05-05 14:35 49.63613 4.06952 18547 ft 329 kts 187°
2026-05-05 14:35 49.61397 4.06082 17967 ft 334 kts 200°
2026-05-05 14:36 49.59314 4.04299 16947 ft 352 kts 215°
2026-05-05 14:36 49.57563 4.01565 15993 ft 368 kts 233°
2026-05-05 14:36 49.56386 3.98024 15320 ft 374 kts 245°
2026-05-05 14:36 49.55369 3.94332 14753 ft 374 kts 245°
2026-05-05 14:37 49.54366 3.90646 14226 ft 372 kts 245°
2026-05-05 14:37 49.53374 3.86980 13729 ft 370 kts 245°
2026-05-05 14:37 49.52382 3.83318 13446 ft 371 kts 245°
2026-05-05 14:37 49.51391 3.79659 13183 ft 370 kts 245°
2026-05-05 14:38 49.50400 3.76003 12917 ft 370 kts 245°
2026-05-05 14:38 49.49409 3.72351 12791 ft 369 kts 245°
2026-05-05 14:38 49.48416 3.68697 12819 ft 371 kts 245°
2026-05-05 14:38 49.47414 3.65037 12825 ft 372 kts 245°
2026-05-05 14:39 49.46409 3.61377 12821 ft 372 kts 245°
2026-05-05 14:39 49.45403 3.57709 12823 ft 373 kts 245°
2026-05-05 14:39 49.44394 3.54037 12822 ft 374 kts 245°
2026-05-05 14:39 49.43376 3.50359 12823 ft 374 kts 245°
2026-05-05 14:40 49.42357 3.46684 12820 ft 375 kts 245°
2026-05-05 14:40 49.41338 3.42989 12824 ft 375 kts 246°
2026-05-05 14:40 49.40351 3.39330 12822 ft 375 kts 246°
2026-05-05 14:40 49.39367 3.35626 12823 ft 375 kts 246°
2026-05-05 14:41 49.38386 3.31912 12820 ft 375 kts 246°
2026-05-05 14:41 49.37401 3.28189 12819 ft 375 kts 246°
2026-05-05 14:41 49.36412 3.24479 12820 ft 375 kts 247°
2026-05-05 14:41 49.35416 3.20769 12820 ft 376 kts 246°
2026-05-05 14:42 49.34420 3.17062 12820 ft 376 kts 246°
2026-05-05 14:42 49.33424 3.13354 12825 ft 376 kts 246°
2026-05-05 14:42 49.32424 3.09644 12824 ft 376 kts 246°
2026-05-05 14:42 49.31419 3.05946 12777 ft 377 kts 246°
2026-05-05 14:43 49.30404 3.02219 11959 ft 383 kts 247°
2026-05-05 14:43 49.29390 2.98499 11635 ft 373 kts 247°
2026-05-05 14:43 49.28397 2.94857 11286 ft 369 kts 247°
2026-05-05 14:43 49.27410 2.91240 11029 ft 367 kts 247°
2026-05-05 14:44 49.26428 2.87640 10781 ft 366 kts 247°
2026-05-05 14:44 49.25451 2.84055 10537 ft 364 kts 247°
2026-05-05 14:44 49.24908 2.82060 10397 ft 363 kts 248°
2026-05-05 14:44 49.24242 2.79594 10232 ft 363 kts 248°
2026-05-05 14:45 49.23274 2.76037 9979 ft 361 kts 247°
2026-05-05 14:45 49.22302 2.72505 9782 ft 361 kts 247°
2026-05-05 14:45 49.21341 2.69037 9511 ft 342 kts 247°
2026-05-05 14:45 49.20445 2.65817 9365 ft 316 kts 247°
2026-05-05 14:46 49.19607 2.62798 8906 ft 304 kts 247°
2026-05-05 14:46 49.18794 2.59863 8660 ft 299 kts 248°
2026-05-05 14:46 49.18189 2.56844 8558 ft 297 kts 261°
2026-05-05 14:46 49.18031 2.53702 8411 ft 296 kts 269°
2026-05-05 14:47 49.17973 2.50562 8215 ft 295 kts 269°
2026-05-05 14:47 49.17904 2.47425 8009 ft 295 kts 269°
2026-05-05 14:47 49.17832 2.44302 7816 ft 294 kts 269°
2026-05-05 14:47 49.17760 2.41188 7609 ft 292 kts 269°
2026-05-05 14:48 49.17689 2.38105 7407 ft 290 kts 269°
2026-05-05 14:48 49.17627 2.35021 7216 ft 290 kts 270°
2026-05-05 14:48 49.17590 2.31941 7101 ft 289 kts 270°
2026-05-05 14:48 49.17541 2.28867 6988 ft 289 kts 265°
2026-05-05 14:49 49.16980 2.25939 6866 ft 290 kts 245°
2026-05-05 14:49 49.16075 2.23170 6739 ft 291 kts 242°
2026-05-05 14:49 49.15135 2.20442 6598 ft 290 kts 242°
2026-05-05 14:49 49.14189 2.17729 6491 ft 289 kts 241°
2026-05-05 14:50 49.12946 2.15354 6367 ft 287 kts 216°
2026-05-05 14:50 49.11171 2.14073 6243 ft 283 kts 189°
2026-05-05 14:50 49.09228 2.13684 6045 ft 279 kts 183°
2026-05-05 14:50 49.07371 2.13450 5766 ft 261 kts 182°
2026-05-05 14:51 49.05624 2.13244 5614 ft 246 kts 182°
2026-05-05 14:51 49.03943 2.13046 5344 ft 241 kts 182°
2026-05-05 14:51 49.02278 2.12872 5045 ft 237 kts 178°
2026-05-05 14:51 49.00658 2.13249 5009 ft 236 kts 158°
2026-05-05 14:52 48.99226 2.14397 4999 ft 231 kts 138°
2026-05-05 14:52 48.98140 2.16143 4999 ft 226 kts 120°
2026-05-05 14:52 48.97483 2.18287 4993 ft 222 kts 102°
2026-05-05 14:52 48.97299 2.20612 4932 ft 222 kts 83°
2026-05-05 14:53 48.97422 2.22956 4711 ft 222 kts 82°
2026-05-05 14:53 48.97516 2.24528 4527 ft 220 kts 82°
2026-05-05 14:53 48.97648 2.26804 4237 ft 217 kts 82°
2026-05-05 14:53 48.97777 2.29085 3953 ft 216 kts 82°
2026-05-05 14:54 48.97905 2.31360 3658 ft 216 kts 82°
2026-05-05 14:54 48.98032 2.33633 3370 ft 214 kts 82°
2026-05-05 14:54 48.98157 2.35875 3087 ft 214 kts 82°
2026-05-05 14:54 48.98283 2.38144 2803 ft 211 kts 81°
2026-05-05 14:55 48.98406 2.40364 2511 ft 210 kts 81°
2026-05-05 14:55 48.98526 2.42554 2222 ft 202 kts 81°
2026-05-05 14:55 48.98639 2.44616 1965 ft 193 kts 81°
2026-05-05 14:55 48.98750 2.46634 1741 ft 187 kts 80°
2026-05-05 14:56 48.98852 2.48528 1472 ft 173 kts 80°
2026-05-05 14:56 48.98945 2.50244 1246 ft 152 kts 81°
2026-05-05 14:56 48.99036 2.51774 1032 ft 139 kts 79°
2026-05-05 14:56 48.99124 2.53233 811 ft 144 kts 82°
2026-05-05 14:57 48.99194 2.54700 610 ft 137 kts 82°
2026-05-05 14:57 48.99274 2.56179 435 ft 138 kts 81°
2026-05-05 14:57 48.99351 2.57553 354 ft 119 kts 85°
2026-05-05 14:57 48.99401 2.58609 356 ft 73 kts 86°
2026-05-05 14:58 48.99426 2.59049 353 ft 26 kts 84°
2026-05-05 14:58 48.99479 2.59287 353 ft 22 kts 65°
2026-05-05 14:58 48.99534 2.59471 359 ft 17 kts 65°
2026-05-05 14:58 48.99575 2.59607 359 ft 0 kts 65°
2026-05-05 14:59 48.99581 2.59625 358 ft 6 kts 65°
2026-05-05 15:00 48.99615 2.59675 356 ft 7 kts 28°
2026-05-05 15:00 48.99642 2.59687 358 ft 6 kts
2026-05-05 15:00 48.99716 2.59684 355 ft 9 kts 354°
2026-05-05 15:00 48.99809 2.59672 353 ft 21 kts 355°
2026-05-05 15:01 48.99952 2.59655 354 ft 19 kts 355°
2026-05-05 15:01 49.00072 2.59640 357 ft 16 kts 355°
2026-05-05 15:01 49.00175 2.59627 356 ft 14 kts 355°
2026-05-05 15:01 49.00261 2.59616 354 ft 11 kts 355°
2026-05-05 15:02 49.00339 2.59606 354 ft 14 kts 355°
2026-05-05 15:02 49.00471 2.59590 356 ft 20 kts 356°
2026-05-05 15:02 49.00599 2.59573 354 ft 17 kts 353°
2026-05-05 15:02 49.00711 2.59559 354 ft 15 kts 355°
2026-05-05 15:03 49.00807 2.59547 354 ft 13 kts 355°
2026-05-05 15:03 49.00875 2.59527 362 ft 7 kts 325°
2026-05-05 15:03 49.00889 2.59451 358 ft 13 kts 270°
2026-05-05 15:03 49.00882 2.59315 357 ft 10 kts 265°
2026-05-05 15:04 49.00876 2.59204 360 ft 15 kts 265°
2026-05-05 15:04 49.00866 2.59019 355 ft 16 kts 265°
2026-05-05 15:04 49.00859 2.58880 355 ft 10 kts 265°
2026-05-05 15:04 49.00850 2.58707 362 ft 27 kts 265°
2026-05-05 15:05 49.00827 2.58285 355 ft 11 kts 265°
2026-05-05 15:05 49.00820 2.58155 355 ft 16 kts 265°
2026-05-05 15:05 49.00813 2.58019 359 ft 10 kts 265°
2026-05-05 15:06 49.00808 2.57942 362 ft 5 kts 264°
2026-05-05 15:06 49.00804 2.57855 355 ft 8 kts 266°
2026-05-05 15:06 49.00794 2.57825 362 ft 0 kts 200°
2026-05-05 15:06 49.00779 2.57833 355 ft 4 kts 169°
2026-05-05 15:07 49.00761 2.57837 354 ft 5 kts 170°
2026-05-05 15:07 49.00734 2.57844 360 ft 2 kts 171°
2026-05-05 15:07 49.00732 2.57845 359 ft 0 kts 171°